TimePST,TemperatureF,Dew PointF,Humidity,Sea Level PressureIn,VisibilityMPH,Wind Direction,Wind SpeedMPH,Gust SpeedMPH,PrecipitationIn,Events,Conditions,WindDirDegrees,DateUTC
12:56 AM,55.0,37.0,51,30.01,10.0,West,4.6,-,N/A,,Clear,280,2013-02-05 08:56:00
1:56 AM,52.0,36.0,54,30.00,10.0,NW,3.5,-,N/A,,Clear,320,2013-02-05 09:56:00
2:56 AM,52.0,37.0,57,29.99,10.0,West,5.8,-,N/A,,Clear,260,2013-02-05 10:56:00
3:56 AM,52.0,37.9,59,29.99,10.0,West,3.5,-,N/A,,Clear,280,2013-02-05 11:56:00
4:56 AM,51.1,39.0,63,30.00,10.0,WSW,4.6,-,N/A,,Clear,240,2013-02-05 12:56:00
5:56 AM,48.9,37.9,66,30.00,10.0,West,4.6,-,N/A,,Clear,260,2013-02-05 13:56:00
6:56 AM,50.0,36.0,59,30.01,10.0,Calm,Calm,-,N/A,,Clear,0,2013-02-05 14:56:00
7:56 AM,54.0,39.9,59,30.03,10.0,West,3.5,-,N/A,,Clear,270,2013-02-05 15:56:00
8:56 AM,61.0,42.1,50,30.05,10.0,WSW,4.6,-,N/A,,Clear,240,2013-02-05 16:56:00
9:56 AM,66.9,43.0,42,30.05,10.0,SSE,3.5,-,N/A,,Clear,160,2013-02-05 17:56:00
10:56 AM,73.0,42.1,33,30.03,10.0,ESE,3.5,-,N/A,,Clear,110,2013-02-05 18:56:00
11:56 AM,77.0,37.9,24,30.00,10.0,ENE,8.1,-,N/A,,Clear,70,2013-02-05 19:56:00
12:56 PM,78.1,37.0,23,29.96,10.0,Calm,Calm,-,N/A,,Partly Cloudy,0,2013-02-05 20:56:00
1:56 PM,79.0,37.9,23,29.93,10.0,ESE,6.9,-,N/A,,Partly Cloudy,110,2013-02-05 21:56:00
2:56 PM,79.0,36.0,21,29.91,10.0,SE,6.9,-,N/A,,Partly Cloudy,130,2013-02-05 22:56:00
3:56 PM,75.9,39.0,26,29.90,10.0,ESE,4.6,-,N/A,,Scattered Clouds,110,2013-02-05 23:56:00
4:56 PM,71.1,42.1,35,29.90,10.0,ESE,5.8,-,N/A,,Mostly Cloudy,120,2013-02-06 00:56:00
5:56 PM,69.1,39.9,35,29.90,10.0,SSE,4.6,-,N/A,,Mostly Cloudy,160,2013-02-06 01:56:00
6:56 PM,64.9,44.1,47,29.92,10.0,SSE,5.8,-,N/A,,Mostly Cloudy,150,2013-02-06 02:56:00
7:56 PM,66.0,43.0,43,29.92,10.0,South,6.9,-,N/A,,Scattered Clouds,180,2013-02-06 03:56:00
8:56 PM,64.0,43.0,46,29.93,10.0,South,8.1,-,N/A,,Scattered Clouds,180,2013-02-06 04:56:00
9:56 PM,66.9,39.0,36,29.93,10.0,SW,11.5,-,N/A,,Scattered Clouds,230,2013-02-06 05:56:00
10:56 PM,64.0,42.1,45,29.93,10.0,WSW,8.1,-,N/A,,Scattered Clouds,240,2013-02-06 06:56:00
11:56 PM,62.1,42.1,48,29.93,10.0,West,4.6,-,N/A,,Clear,280,2013-02-06 07:56:00